sat.trackr.live / text

‹ back to catalog

STARLINK-6140

NORAD 57111 · 2023-090L

PAYLOAD ACTIVE UNKNOWN

§ Identity

Operator
Country
US
Launch date
2023-06-23
Launch site
AFETR
Launch vehicle
Mass (kg)
RCS (m²)

Purposes: comms

External: N2YO · Heavens-Above · Gunter

§ Orbital elements

Epoch: 2026-09-20T00:24:34.935264Z

Period
94.27 min
Inclination
43.0014°
Eccentricity
0.0001366
Mean motion
15.27572087 rev/d
Perigee alt
482.1 km
Apogee alt
484.0 km
Semi-major
6,861.2 km
B*
-9.6727e-6
RAAN
263.9784°
Arg perigee
262.5978°
Mean anomaly
97.4719°
Rev number
18,005

§ Raw data

STARLINK-61401 57111U 23090L   26263.01707101 -.00000528  00000+0 -96727-5 0  99972 57111  43.0014 263.9784 0001366 262.5978  97.4719 15.27572087180058

JSON: /api/v1/satellites/57111 · /tle

For live sub-satellite position, see the globe view (requires WebGL).

§ Visibility from observer

Set your observer location to see the next 7 days of passes ≥ 10°. The values pass through the URL so the page stays shareable.

No JS? Fill the form by hand. The geolocation button needs JavaScript.